Time,TemperatureF,DewpointF,PressureIn,WindDirection,WindDirectionDegrees,WindSpeedMPH,WindSpeedGustMPH,Humidity,HourlyPrecipIn,Conditions,Clouds,dailyrainin,SoftwareType,DateUTC
2013-02-20 00:03:00,13.6,10.0,29.90,NW,321,0.0,0.0,88,0.00,,,0.00,TxWx,2013-02-20 06:03:00,
2013-02-20 00:08:00,13.6,10.0,29.90,NW,320,0.0,0.0,87,0.00,,,0.00,TxWx,2013-02-20 06:08:00,
2013-02-20 00:13:00,13.8,9.0,29.90,NW,319,0.0,0.0,84,0.00,,,0.00,TxWx,2013-02-20 06:13:00,
2013-02-20 00:19:00,13.9,7.0,29.90,NW,322,0.0,0.0,78,0.00,,,0.00,TxWx,2013-02-20 06:19:00,
2013-02-20 00:24:00,13.8,8.0,29.91,NW,326,0.0,0.0,80,0.00,,,0.00,TxWx,2013-02-20 06:24:00,
2013-02-20 00:29:00,13.6,7.0,29.91,NW,326,0.0,0.0,76,0.00,,,0.00,TxWx,2013-02-20 06:29:00,
2013-02-20 00:34:00,13.6,6.0,29.91,NW,315,0.0,0.0,75,0.00,,,0.00,TxWx,2013-02-20 06:34:00,
2013-02-20 00:39:00,13.4,5.0,29.92,NW,317,0.0,0.0,74,0.00,,,0.00,TxWx,2013-02-20 06:39:00,
2013-02-20 00:44:00,13.4,5.0,29.92,NW,318,0.0,0.0,75,0.00,,,0.00,TxWx,2013-02-20 06:44:00,
2013-02-20 00:49:00,13.4,6.0,29.92,North,10,0.0,0.0,75,0.00,,,0.00,TxWx,2013-02-20 06:49:00,
2013-02-20 00:55:00,13.4,5.0,29.92,NW,313,0.0,0.0,75,0.00,,,0.00,TxWx,2013-02-20 06:55:00,
2013-02-20 01:00:00,13.3,6.0,29.93,NW,323,0.0,0.0,75,0.00,,,0.00,TxWx,2013-02-20 07:00:00,
2013-02-20 01:05:00,13.4,6.0,29.93,NW,317,0.0,0.0,75,0.00,,,0.00,TxWx,2013-02-20 07:05:00,
2013-02-20 01:10:00,13.5,6.0,29.93,NW,317,0.0,0.0,75,0.00,,,0.00,TxWx,2013-02-20 07:10:00,
2013-02-20 01:15:00,13.5,7.0,29.94,NW,317,0.0,0.0,75,0.00,,,0.00,TxWx,2013-02-20 07:15:00,
2013-02-20 01:20:00,13.5,6.0,29.94,NW,324,0.0,0.0,75,0.00,,,0.00,TxWx,2013-02-20 07:20:00,
2013-02-20 01:25:00,13.6,7.0,29.94,North,10,0.0,0.0,75,0.00,,,0.00,TxWx,2013-02-20 07:25:00,
2013-02-20 01:31:00,13.5,7.0,29.94,NW,321,0.0,0.0,75,0.00,,,0.00,TxWx,2013-02-20 07:31:00,
2013-02-20 01:36:00,13.6,7.0,29.94,NW,316,0.0,0.0,76,0.00,,,0.00,TxWx,2013-02-20 07:36:00,
2013-02-20 01:41:00,13.6,7.0,29.94,NW,325,0.0,0.0,76,0.00,,,0.00,TxWx,2013-02-20 07:41:00,
2013-02-20 01:46:00,13.6,7.0,29.94,NW,315,0.0,0.0,76,0.00,,,0.00,TxWx,2013-02-20 07:46:00,
2013-02-20 01:52:00,13.6,7.0,29.94,NW,314,0.0,0.0,76,0.00,,,0.00,TxWx,2013-02-20 07:52:00,
2013-02-20 01:57:00,13.5,7.0,29.95,NW,321,0.0,0.0,77,0.00,,,0.00,TxWx,2013-02-20 07:57:00,
2013-02-20 02:05:00,13.5,6.0,29.95,NW,319,0.0,0.0,76,0.00,,,0.00,TxWx,2013-02-20 08:05:00,
2013-02-20 02:11:00,13.5,7.0,29.95,NW,316,0.0,0.0,76,0.00,,,0.00,TxWx,2013-02-20 08:11:00,
2013-02-20 02:16:00,13.4,6.0,29.95,NW,323,0.0,0.0,77,0.00,,,0.00,TxWx,2013-02-20 08:16:00,
2013-02-20 02:21:00,13.4,6.0,29.95,NW,318,0.0,0.0,77,0.00,,,0.00,TxWx,2013-02-20 08:21:00,
2013-02-20 02:26:00,13.4,6.0,29.95,NW,314,0.0,0.0,76,0.00,,,0.00,TxWx,2013-02-20 08:26:00,
2013-02-20 02:32:00,13.3,6.0,29.95,NW,317,0.0,0.0,76,0.00,,,0.00,TxWx,2013-02-20 08:32:00,
2013-02-20 02:37:00,13.2,6.0,29.95,NW,313,0.0,0.0,76,0.00,,,0.00,TxWx,2013-02-20 08:37:00,
2013-02-20 02:42:00,13.3,6.0,29.96,North,10,0.0,0.0,76,0.00,,,0.00,TxWx,2013-02-20 08:42:00,
2013-02-20 02:48:00,13.3,6.0,29.95,NW,318,0.0,0.0,75,0.00,,,0.00,TxWx,2013-02-20 08:48:00,
2013-02-20 02:53:00,13.3,6.0,29.95,NW,315,0.0,0.0,76,0.00,,,0.00,TxWx,2013-02-20 08:53:00,
2013-02-20 02:58:00,13.2,6.0,29.96,SSE,157,0.0,0.0,75,0.00,,,0.00,TxWx,2013-02-20 08:58:00,
2013-02-20 03:03:00,13.2,6.0,29.96,NW,322,0.0,0.0,75,0.00,,,0.00,TxWx,2013-02-20 09:03:00,
2013-02-20 03:09:00,13.2,6.0,29.96,NW,315,0.0,0.0,76,0.00,,,0.00,TxWx,2013-02-20 09:09:00,
2013-02-20 03:14:00,13.2,6.0,29.97,North,10,0.0,0.0,75,0.00,,,0.00,TxWx,2013-02-20 09:14:00,
2013-02-20 03:19:00,13.1,6.0,29.97,North,11,0.0,0.0,75,0.00,,,0.00,TxWx,2013-02-20 09:19:00,
2013-02-20 03:24:00,13.1,6.0,29.97,NW,326,0.0,0.0,76,0.00,,,0.00,TxWx,2013-02-20 09:24:00,
2013-02-20 03:30:00,13.2,6.0,29.97,North,10,0.0,0.0,76,0.00,,,0.00,TxWx,2013-02-20 09:30:00,
2013-02-20 03:35:00,13.2,6.0,29.97,NW,314,0.0,0.0,77,0.00,,,0.00,TxWx,2013-02-20 09:35:00,
2013-02-20 03:40:00,13.1,6.0,29.98,NW,319,0.0,0.0,77,0.00,,,0.00,TxWx,2013-02-20 09:40:00,
2013-02-20 03:45:00,13.1,6.0,29.98,North,358,0.0,0.0,77,0.00,,,0.00,TxWx,2013-02-20 09:45:00,
2013-02-20 03:51:00,13.0,6.0,29.98,NW,316,0.0,0.0,78,0.00,,,0.00,TxWx,2013-02-20 09:51:00,
2013-02-20 03:56:00,12.9,6.0,29.98,NW,316,0.0,0.0,78,0.00,,,0.00,TxWx,2013-02-20 09:56:00,
2013-02-20 04:01:00,12.9,6.0,29.99,NW,319,0.0,0.0,77,0.00,,,0.00,TxWx,2013-02-20 10:01:00,
2013-02-20 04:07:00,12.9,6.0,29.99,North,9,0.0,0.0,77,0.00,,,0.00,TxWx,2013-02-20 10:07:00,
2013-02-20 04:12:00,13.0,6.0,29.99,NW,314,0.0,0.0,77,0.00,,,0.00,TxWx,2013-02-20 10:12:00,
2013-02-20 04:17:00,13.0,6.0,29.99,NW,323,0.0,0.0,78,0.00,,,0.00,TxWx,2013-02-20 10:17:00,
2013-02-20 04:22:00,13.1,6.0,29.99,NW,324,0.0,0.0,78,0.00,,,0.00,TxWx,2013-02-20 10:22:00,
2013-02-20 04:27:00,13.1,7.0,29.99,NW,324,0.0,0.0,79,0.00,,,0.00,TxWx,2013-02-20 10:27:00,
2013-02-20 04:32:00,13.2,6.0,30.00,NW,315,0.0,0.0,77,0.00,,,0.00,TxWx,2013-02-20 10:32:00,
2013-02-20 04:38:00,13.2,6.0,30.00,NW,322,0.0,0.0,78,0.00,,,0.00,TxWx,2013-02-20 10:38:00,
2013-02-20 04:43:00,13.3,7.0,30.00,NW,316,0.0,0.0,79,0.00,,,0.00,TxWx,2013-02-20 10:43:00,
2013-02-20 04:48:00,13.3,7.0,30.00,SSE,162,0.0,0.0,79,0.00,,,0.00,TxWx,2013-02-20 10:48:00,
2013-02-20 04:53:00,13.3,7.0,30.00,North,9,0.0,0.0,80,0.00,,,0.00,TxWx,2013-02-20 10:53:00,
2013-02-20 04:58:00,13.3,7.0,30.00,NW,319,0.0,0.0,80,0.00,,,0.00,TxWx,2013-02-20 10:58:00,
2013-02-20 05:04:00,13.4,7.0,30.01,SSE,158,0.0,0.0,79,0.00,,,0.00,TxWx,2013-02-20 11:04:00,
2013-02-20 05:09:00,13.4,7.0,30.01,NW,315,0.0,0.0,80,0.00,,,0.00,TxWx,2013-02-20 11:09:00,
2013-02-20 05:14:00,13.6,8.0,30.01,NW,313,0.0,0.0,80,0.00,,,0.00,TxWx,2013-02-20 11:14:00,
2013-02-20 05:19:00,13.5,8.0,30.01,NW,321,0.0,0.0,79,0.00,,,0.00,TxWx,2013-02-20 11:19:00,
2013-02-20 05:24:00,13.5,8.0,30.01,NW,326,0.0,0.0,80,0.00,,,0.00,TxWx,2013-02-20 11:24:00,
2013-02-20 05:29:00,13.6,8.0,30.00,NW,323,0.0,0.0,81,0.00,,,0.00,TxWx,2013-02-20 11:29:00,
2013-02-20 05:35:00,13.7,8.0,30.00,NW,315,0.0,0.0,80,0.00,,,0.00,TxWx,2013-02-20 11:35:00,
2013-02-20 05:40:00,13.6,8.0,30.00,NW,318,0.0,0.0,79,0.00,,,0.00,TxWx,2013-02-20 11:40:00,
2013-02-20 05:45:00,13.6,8.0,29.99,North,9,0.0,0.0,79,0.00,,,0.00,TxWx,2013-02-20 11:45:00,
2013-02-20 05:50:00,13.6,8.0,29.99,NW,318,0.0,0.0,79,0.00,,,0.00,TxWx,2013-02-20 11:50:00,
2013-02-20 05:55:00,13.6,8.0,29.99,NW,313,0.0,0.0,79,0.00,,,0.00,TxWx,2013-02-20 11:55:00,
2013-02-20 06:01:00,13.6,8.0,29.99,NW,315,0.0,0.0,80,0.00,,,0.00,TxWx,2013-02-20 12:01:00,
2013-02-20 06:06:00,13.7,8.0,29.99,NW,322,0.0,0.0,80,0.00,,,0.00,TxWx,2013-02-20 12:06:00,
2013-02-20 06:11:00,13.6,8.0,29.98,NW,324,0.0,0.0,80,0.00,,,0.00,TxWx,2013-02-20 12:11:00,
2013-02-20 06:16:00,13.8,8.0,29.98,NW,321,0.0,0.0,81,0.00,,,0.00,TxWx,2013-02-20 12:16:00,
2013-02-20 06:21:00,13.8,8.0,29.99,NW,325,0.0,0.0,80,0.00,,,0.00,TxWx,2013-02-20 12:21:00,
2013-02-20 06:27:00,13.9,8.0,29.99,NW,320,0.0,0.0,80,0.00,,,0.00,TxWx,2013-02-20 12:27:00,
2013-02-20 06:32:00,13.9,8.0,29.99,NW,317,0.0,0.0,81,0.00,,,0.00,TxWx,2013-02-20 12:32:00,
2013-02-20 06:37:00,14.0,8.0,29.99,NW,324,0.0,0.0,81,0.00,,,0.00,TxWx,2013-02-20 12:37:00,
2013-02-20 06:42:00,13.9,8.0,29.99,NW,322,0.0,0.0,81,0.00,,,0.00,TxWx,2013-02-20 12:42:00,
2013-02-20 06:47:00,13.9,8.0,30.00,NNW,327,0.0,0.0,82,0.00,,,0.00,TxWx,2013-02-20 12:47:00,
2013-02-20 06:52:00,14.0,8.0,29.99,NW,323,0.0,0.0,82,0.00,,,0.00,TxWx,2013-02-20 12:52:00,
2013-02-20 06:57:00,13.9,8.0,29.99,NW,324,0.0,0.0,82,0.00,,,0.00,TxWx,2013-02-20 12:57:00,
2013-02-20 07:02:00,13.9,9.0,30.00,NW,318,0.0,0.0,82,0.00,,,0.00,TxWx,2013-02-20 13:02:00,
2013-02-20 07:08:00,13.9,9.0,30.00,NW,318,0.0,0.0,84,0.00,,,0.00,TxWx,2013-02-20 13:08:00,
2013-02-20 07:13:00,14.0,9.0,30.00,NW,320,0.0,0.0,84,0.00,,,0.00,TxWx,2013-02-20 13:13:00,
2013-02-20 07:18:00,13.9,9.0,30.00,NW,313,0.0,0.0,83,0.00,,,0.00,TxWx,2013-02-20 13:18:00,
2013-02-20 07:23:00,14.0,9.0,30.00,NW,318,0.0,0.0,84,0.00,,,0.00,TxWx,2013-02-20 13:23:00,
2013-02-20 07:28:00,14.1,9.0,30.01,NW,317,0.0,0.0,85,0.00,,,0.00,TxWx,2013-02-20 13:28:00,
2013-02-20 07:33:00,14.1,9.0,30.01,NW,319,0.0,0.0,84,0.00,,,0.00,TxWx,2013-02-20 13:33:00,
2013-02-20 07:39:00,14.1,9.0,30.01,NW,320,0.0,0.0,85,0.00,,,0.00,TxWx,2013-02-20 13:39:00,
2013-02-20 07:44:00,14.2,10.0,30.01,NW,324,0.0,0.0,86,0.00,,,0.00,TxWx,2013-02-20 13:44:00,
2013-02-20 07:49:00,14.3,10.0,30.01,NW,313,0.0,0.0,87,0.00,,,0.00,TxWx,2013-02-20 13:49:00,
2013-02-20 07:54:00,14.3,9.0,30.01,NW,326,0.0,0.0,86,0.00,,,0.00,TxWx,2013-02-20 13:54:00,
2013-02-20 07:59:00,14.3,9.0,30.01,NNW,329,0.0,0.0,85,0.00,,,0.00,TxWx,2013-02-20 13:59:00,
2013-02-20 08:04:00,14.4,9.0,30.01,NW,323,0.0,0.0,84,0.00,,,0.00,TxWx,2013-02-20 14:04:00,
2013-02-20 08:10:00,14.5,10.0,30.01,NW,314,0.0,0.0,83,0.00,,,0.00,TxWx,2013-02-20 14:10:00,
2013-02-20 08:15:00,14.7,10.0,30.01,NW,321,0.0,0.0,84,0.00,,,0.00,TxWx,2013-02-20 14:15:00,
2013-02-20 08:20:00,14.7,10.0,30.01,North,10,0.0,0.0,84,0.00,,,0.00,TxWx,2013-02-20 14:20:00,
2013-02-20 08:25:00,14.7,10.0,30.01,NW,319,0.0,0.0,83,0.00,,,0.00,TxWx,2013-02-20 14:25:00,
2013-02-20 08:30:00,14.7,10.0,30.01,ESE,105,0.0,0.0,83,0.00,,,0.00,TxWx,2013-02-20 14:30:00,
2013-02-20 08:35:00,14.7,10.0,30.01,NW,322,0.0,0.0,83,0.00,,,0.00,TxWx,2013-02-20 14:35:00,
2013-02-20 08:41:00,14.7,10.0,30.01,NW,318,0.0,0.0,83,0.00,,,0.00,TxWx,2013-02-20 14:41:00,
2013-02-20 08:46:00,15.0,10.0,30.02,NW,321,0.0,0.0,83,0.00,,,0.00,TxWx,2013-02-20 14:46:00,
2013-02-20 08:51:00,15.0,10.0,30.02,NW,323,0.0,0.0,82,0.00,,,0.00,TxWx,2013-02-20 14:51:00,
2013-02-20 08:56:00,15.1,10.0,30.02,NW,315,0.0,0.0,84,0.00,,,0.00,TxWx,2013-02-20 14:56:00,
2013-02-20 09:02:00,15.1,10.0,30.02,NW,314,0.0,0.0,83,0.00,,,0.00,TxWx,2013-02-20 15:02:00,
2013-02-20 09:07:00,15.0,10.0,30.02,NW,313,0.0,0.0,83,0.00,,,0.00,TxWx,2013-02-20 15:07:00,
2013-02-20 09:12:00,15.1,10.0,30.02,NW,325,0.0,0.0,84,0.00,,,0.00,TxWx,2013-02-20 15:12:00,
2013-02-20 09:17:00,15.2,10.0,30.02,NW,323,0.0,0.0,83,0.00,,,0.00,TxWx,2013-02-20 15:17:00,
2013-02-20 09:22:00,15.4,10.0,30.03,NNW,327,0.0,0.0,84,0.00,,,0.00,TxWx,2013-02-20 15:22:00,
2013-02-20 09:28:00,15.4,10.0,30.03,NW,323,0.0,0.0,83,0.00,,,0.00,TxWx,2013-02-20 15:28:00,
2013-02-20 09:33:00,15.5,11.0,30.03,NW,321,0.0,0.0,83,0.00,,,0.00,TxWx,2013-02-20 15:33:00,
2013-02-20 09:38:00,15.6,11.0,30.04,NNE,12,0.0,0.0,84,0.00,,,0.00,TxWx,2013-02-20 15:38:00,
2013-02-20 09:43:00,15.9,11.0,30.04,NW,322,0.0,0.0,84,0.00,,,0.00,TxWx,2013-02-20 15:43:00,
2013-02-20 09:48:00,15.8,11.0,30.04,NW,313,0.0,0.0,84,0.00,,,0.00,TxWx,2013-02-20 15:48:00,
2013-02-20 09:54:00,16.0,11.0,30.04,NW,320,0.0,0.0,84,0.00,,,0.00,TxWx,2013-02-20 15:54:00,
2013-02-20 09:59:00,16.1,11.0,30.04,NW,314,0.0,0.0,84,0.00,,,0.00,TxWx,2013-02-20 15:59:00,
2013-02-20 10:04:00,15.9,11.0,30.04,NW,322,0.0,0.0,83,0.00,,,0.00,TxWx,2013-02-20 16:04:00,
2013-02-20 10:09:00,16.0,11.0,30.05,NW,319,0.0,0.0,84,0.00,,,0.00,TxWx,2013-02-20 16:09:00,
2013-02-20 10:15:00,16.1,11.0,30.05,North,11,0.0,0.0,84,0.00,,,0.00,TxWx,2013-02-20 16:15:00,
2013-02-20 10:20:00,16.3,11.0,30.05,NW,317,0.0,0.0,84,0.00,,,0.00,TxWx,2013-02-20 16:20:00,
2013-02-20 10:25:00,16.2,11.0,30.05,NW,322,0.0,0.0,85,0.00,,,0.00,TxWx,2013-02-20 16:25:00,
2013-02-20 10:31:00,16.0,11.0,30.05,NW,314,0.0,0.0,84,0.00,,,0.00,TxWx,2013-02-20 16:31:00,
2013-02-20 10:36:00,16.3,11.0,30.05,NW,317,0.0,0.0,84,0.00,,,0.00,TxWx,2013-02-20 16:36:00,
2013-02-20 10:41:00,16.4,11.0,30.05,NNW,329,0.0,0.0,84,0.00,,,0.00,TxWx,2013-02-20 16:41:00,
2013-02-20 10:46:00,16.2,11.0,30.06,NW,320,0.0,0.0,85,0.00,,,0.00,TxWx,2013-02-20 16:46:00,
2013-02-20 10:52:00,16.1,11.0,30.06,North,10,0.0,0.0,85,0.00,,,0.00,TxWx,2013-02-20 16:52:00,
2013-02-20 10:57:00,16.0,11.0,30.06,NW,314,0.0,0.0,84,0.00,,,0.00,TxWx,2013-02-20 16:57:00,
2013-02-20 11:02:00,16.0,11.0,30.06,NW,323,0.0,0.0,85,0.00,,,0.00,TxWx,2013-02-20 17:02:00,
2013-02-20 11:07:00,16.0,11.0,30.06,NW,315,0.0,0.0,86,0.00,,,0.00,TxWx,2013-02-20 17:07:00,
2013-02-20 11:12:00,15.9,11.0,30.06,NW,319,0.0,0.0,85,0.00,,,0.00,TxWx,2013-02-20 17:12:00,
2013-02-20 11:18:00,16.2,11.0,30.06,NW,320,0.0,0.0,86,0.00,,,0.00,TxWx,2013-02-20 17:18:00,
2013-02-20 11:23:00,16.1,11.0,30.06,South,169,0.0,0.0,85,0.00,,,0.00,TxWx,2013-02-20 17:23:00,
2013-02-20 11:28:00,16.0,11.0,30.06,NW,316,0.0,0.0,85,0.00,,,0.00,TxWx,2013-02-20 17:28:00,
2013-02-20 11:33:00,16.2,12.0,30.06,NW,316,0.0,0.0,87,0.00,,,0.00,TxWx,2013-02-20 17:33:00,
2013-02-20 11:39:00,16.3,11.0,30.06,North,9,0.0,0.0,86,0.00,,,0.00,TxWx,2013-02-20 17:39:00,
2013-02-20 11:44:00,16.3,11.0,30.06,NW,317,0.0,0.0,85,0.00,,,0.00,TxWx,2013-02-20 17:44:00,
2013-02-20 11:49:00,16.2,11.0,30.05,NW,315,0.0,0.0,84,0.00,,,0.00,TxWx,2013-02-20 17:49:00,
2013-02-20 11:54:00,16.6,12.0,30.05,NW,316,0.0,0.0,86,0.00,,,0.00,TxWx,2013-02-20 17:54:00,
2013-02-20 11:59:00,16.6,12.0,30.05,NW,317,0.0,0.0,85,0.00,,,0.00,TxWx,2013-02-20 17:59:00,
2013-02-20 12:04:00,16.6,12.0,30.05,NW,320,0.0,0.0,86,0.00,,,0.00,TxWx,2013-02-20 18:04:00,
2013-02-20 12:09:00,16.5,11.0,30.05,North,3,0.0,0.0,85,0.00,,,0.00,TxWx,2013-02-20 18:09:00,
2013-02-20 12:14:00,16.4,11.0,30.05,NW,316,0.0,0.0,84,0.00,,,0.00,TxWx,2013-02-20 18:14:00,
2013-02-20 12:19:00,16.5,11.0,30.05,NW,317,0.0,0.0,84,0.00,,,0.00,TxWx,2013-02-20 18:19:00,
2013-02-20 12:24:00,16.9,12.0,30.05,NW,319,0.0,0.0,86,0.00,,,0.00,TxWx,2013-02-20 18:24:00,
2013-02-20 12:29:00,16.7,12.0,30.04,NW,320,0.0,0.0,85,0.00,,,0.00,TxWx,2013-02-20 18:29:00,
2013-02-20 12:34:00,16.6,12.0,30.04,NW,320,0.0,0.0,84,0.00,,,0.00,TxWx,2013-02-20 18:34:00,
2013-02-20 12:39:00,16.9,12.0,30.04,NW,318,0.0,0.0,84,0.00,,,0.00,TxWx,2013-02-20 18:39:00,
2013-02-20 12:45:00,16.8,11.0,30.04,NW,317,0.0,0.0,82,0.00,,,0.00,TxWx,2013-02-20 18:45:00,
2013-02-20 12:50:00,17.1,12.0,30.05,NW,313,0.0,0.0,84,0.00,,,0.00,TxWx,2013-02-20 18:50:00,
2013-02-20 12:55:00,17.1,12.0,30.05,NW,316,0.0,0.0,84,0.00,,,0.00,TxWx,2013-02-20 18:55:00,
2013-02-20 13:00:00,17.0,12.0,30.05,North,2,0.0,0.0,84,0.00,,,0.00,TxWx,2013-02-20 19:00:00,
2013-02-20 13:06:00,16.8,12.0,30.07,North,1,0.0,0.0,83,0.00,,,0.00,TxWx,2013-02-20 19:06:00,
2013-02-20 13:11:00,17.4,12.0,30.07,NW,324,0.0,0.0,84,0.00,,,0.00,TxWx,2013-02-20 19:11:00,
2013-02-20 13:16:00,17.8,13.0,30.06,NW,319,0.0,0.0,84,0.00,,,0.00,TxWx,2013-02-20 19:16:00,
2013-02-20 13:21:00,17.6,13.0,30.07,NW,316,0.0,0.0,83,0.00,,,0.00,TxWx,2013-02-20 19:21:00,
2013-02-20 13:27:00,17.2,12.0,30.08,NW,314,0.0,0.0,83,0.00,,,0.00,TxWx,2013-02-20 19:27:00,
2013-02-20 13:32:00,17.4,12.0,30.08,ESE,104,0.0,0.0,83,0.00,,,0.00,TxWx,2013-02-20 19:32:00,
2013-02-20 13:37:00,17.3,11.0,30.08,NW,314,0.0,0.0,82,0.00,,,0.00,TxWx,2013-02-20 19:37:00,
2013-02-20 13:42:00,17.6,12.0,30.08,North,0,0.0,0.0,82,0.00,,,0.00,TxWx,2013-02-20 19:42:00,
2013-02-20 13:47:00,17.6,13.0,30.09,NW,318,0.0,0.0,83,0.00,,,0.00,TxWx,2013-02-20 19:47:00,
2013-02-20 13:53:00,17.7,12.0,30.09,NW,318,0.0,0.0,82,0.00,,,0.00,TxWx,2013-02-20 19:53:00,
2013-02-20 13:58:00,17.7,12.0,30.09,NW,320,0.0,0.0,81,0.00,,,0.00,TxWx,2013-02-20 19:58:00,
2013-02-20 14:03:00,17.7,12.0,30.09,NW,313,0.0,0.0,81,0.00,,,0.00,TxWx,2013-02-20 20:03:00,
2013-02-20 14:08:00,17.5,12.0,30.09,NW,316,0.0,0.0,81,0.00,,,0.00,TxWx,2013-02-20 20:08:00,
2013-02-20 14:13:00,17.9,12.0,30.09,NW,314,0.0,0.0,81,0.00,,,0.00,TxWx,2013-02-20 20:13:00,
2013-02-20 14:19:00,18.0,12.0,30.09,NW,313,0.0,0.0,80,0.00,,,0.00,TxWx,2013-02-20 20:19:00,
2013-02-20 14:24:00,18.1,11.0,30.09,NW,321,0.0,0.0,78,0.00,,,0.00,TxWx,2013-02-20 20:24:00,
2013-02-20 14:29:00,18.4,11.0,30.08,North,2,0.0,0.0,77,0.00,,,0.00,TxWx,2013-02-20 20:29:00,
2013-02-20 14:34:00,18.5,11.0,30.08,NW,315,0.0,0.0,74,0.00,,,0.00,TxWx,2013-02-20 20:34:00,
2013-02-20 14:39:00,18.3,10.0,30.08,NW,316,0.0,0.0,75,0.00,,,0.00,TxWx,2013-02-20 20:39:00,
2013-02-20 14:44:00,18.4,10.0,30.08,NW,315,0.0,0.0,73,0.00,,,0.00,TxWx,2013-02-20 20:44:00,
2013-02-20 14:49:00,18.7,10.0,30.08,NW,322,0.0,0.0,72,0.00,,,0.00,TxWx,2013-02-20 20:49:00,
2013-02-20 14:54:00,19.1,11.0,30.08,NNW,337,0.0,0.0,73,0.00,,,0.00,TxWx,2013-02-20 20:54:00,
2013-02-20 14:59:00,19.5,10.0,30.08,NW,313,0.0,0.0,69,0.00,,,0.00,TxWx,2013-02-20 20:59:00,
2013-02-20 15:05:00,19.7,10.0,30.08,NW,318,0.0,0.0,69,0.00,,,0.00,TxWx,2013-02-20 21:05:00,
2013-02-20 15:10:00,20.5,10.0,30.08,NW,324,0.0,0.0,69,0.00,,,0.00,TxWx,2013-02-20 21:10:00,
2013-02-20 15:15:00,20.3,10.0,30.08,NW,323,0.0,0.0,68,0.00,,,0.00,TxWx,2013-02-20 21:15:00,
2013-02-20 15:20:00,20.8,11.0,30.08,NW,318,0.0,0.0,67,0.00,,,0.00,TxWx,2013-02-20 21:20:00,
2013-02-20 15:25:00,20.3,8.0,30.07,NNW,328,0.0,0.0,63,0.00,,,0.00,TxWx,2013-02-20 21:25:00,
2013-02-20 15:30:00,19.9,8.0,30.07,NNW,334,0.0,0.0,63,0.00,,,0.00,TxWx,2013-02-20 21:30:00,
2013-02-20 15:35:00,19.9,9.0,30.07,NW,318,0.0,0.0,65,0.00,,,0.00,TxWx,2013-02-20 21:35:00,
2013-02-20 15:41:00,20.4,9.0,30.07,NNW,329,0.0,0.0,64,0.00,,,0.00,TxWx,2013-02-20 21:41:00,
2013-02-20 15:46:00,20.5,9.0,30.07,NW,324,0.0,0.0,65,0.00,,,0.00,TxWx,2013-02-20 21:46:00,
2013-02-20 15:51:00,20.5,9.0,30.07,NW,322,0.0,0.0,66,0.00,,,0.00,TxWx,2013-02-20 21:51:00,
2013-02-20 15:56:00,20.2,9.0,30.07,NW,320,0.0,0.0,66,0.00,,,0.00,TxWx,2013-02-20 21:56:00,
2013-02-20 16:01:00,20.5,10.0,30.07,NNW,329,0.0,0.0,66,0.00,,,0.00,TxWx,2013-02-20 22:01:00,
2013-02-20 16:06:00,20.4,10.0,30.07,NNW,334,0.0,0.0,68,0.00,,,0.00,TxWx,2013-02-20 22:06:00,
2013-02-20 16:11:00,20.5,11.0,30.07,NW,320,0.0,0.0,67,0.00,,,0.00,TxWx,2013-02-20 22:11:00,
2013-02-20 16:17:00,20.0,10.0,30.07,NW,320,0.0,0.0,68,0.00,,,0.00,TxWx,2013-02-20 22:17:00,
2013-02-20 16:22:00,20.0,10.0,30.07,NW,320,0.0,0.0,69,0.00,,,0.00,TxWx,2013-02-20 22:22:00,
2013-02-20 16:27:00,19.8,10.0,30.07,NNW,330,0.0,0.0,69,0.00,,,0.00,TxWx,2013-02-20 22:27:00,
2013-02-20 16:32:00,19.3,10.0,30.07,NNW,327,0.0,0.0,70,0.00,,,0.00,TxWx,2013-02-20 22:32:00,
2013-02-20 16:38:00,19.1,10.0,30.08,NNW,328,0.0,0.0,71,0.00,,,0.00,TxWx,2013-02-20 22:38:00,
2013-02-20 16:43:00,19.0,10.0,30.08,NW,324,0.0,0.0,71,0.00,,,0.00,TxWx,2013-02-20 22:43:00,
2013-02-20 16:48:00,19.0,10.0,30.08,NW,319,0.0,0.0,71,0.00,,,0.00,TxWx,2013-02-20 22:48:00,
2013-02-20 16:53:00,19.0,10.0,30.08,NW,317,0.0,0.0,71,0.00,,,0.00,TxWx,2013-02-20 22:53:00,
2013-02-20 16:58:00,19.0,10.0,30.08,NW,326,0.0,0.0,72,0.00,,,0.00,TxWx,2013-02-20 22:58:00,
2013-02-20 17:04:00,19.1,10.0,30.08,NW,322,0.0,0.0,72,0.00,,,0.00,TxWx,2013-02-20 23:04:00,
2013-02-20 17:09:00,18.9,10.0,30.08,NW,321,0.0,0.0,72,0.00,,,0.00,TxWx,2013-02-20 23:09:00,
2013-02-20 17:14:00,18.9,11.0,30.09,NNW,327,0.0,0.0,73,0.00,,,0.00,TxWx,2013-02-20 23:14:00,
2013-02-20 17:19:00,19.0,11.0,30.09,NW,322,0.0,0.0,74,0.00,,,0.00,TxWx,2013-02-20 23:19:00,
2013-02-20 17:24:00,19.0,11.0,30.09,NW,317,0.0,0.0,74,0.00,,,0.00,TxWx,2013-02-20 23:24:00,
2013-02-20 17:30:00,19.0,11.0,30.09,NW,322,0.0,0.0,75,0.00,,,0.00,TxWx,2013-02-20 23:30:00,
2013-02-20 17:35:00,19.0,11.0,30.09,NNW,327,0.0,0.0,75,0.00,,,0.00,TxWx,2013-02-20 23:35:00,
2013-02-20 17:40:00,19.0,12.0,30.09,NW,321,0.0,0.0,76,0.00,,,0.00,TxWx,2013-02-20 23:40:00,
2013-02-20 17:46:00,19.0,12.0,30.09,NW,320,0.0,0.0,76,0.00,,,0.00,TxWx,2013-02-20 23:46:00,
2013-02-20 17:51:00,19.0,12.0,30.09,NW,323,0.0,0.0,77,0.00,,,0.00,TxWx,2013-02-20 23:51:00,
2013-02-20 17:58:00,19.1,12.0,30.09,NW,321,0.0,0.0,78,0.00,,,0.00,TxWx,2013-02-20 23:58:00,
2013-02-20 18:03:00,19.2,12.0,30.09,NW,323,0.0,0.0,78,0.00,,,0.00,TxWx,2013-02-21 00:03:00,
2013-02-20 18:08:00,19.2,12.0,30.09,North,360,0.0,0.0,78,0.00,,,0.00,TxWx,2013-02-21 00:08:00,
2013-02-20 18:13:00,19.3,12.0,30.09,NW,314,0.0,0.0,78,0.00,,,0.00,TxWx,2013-02-21 00:13:00,
2013-02-20 18:18:00,19.4,12.0,30.09,NW,322,0.0,0.0,79,0.00,,,0.00,TxWx,2013-02-21 00:18:00,
2013-02-20 18:24:00,19.5,12.0,30.09,NW,321,0.0,0.0,79,0.00,,,0.00,TxWx,2013-02-21 00:24:00,
2013-02-20 18:29:00,19.6,14.0,30.09,NW,323,0.0,0.0,79,0.00,,,0.00,TxWx,2013-02-21 00:29:00,
2013-02-20 18:34:00,19.8,14.0,30.09,NW,322,0.0,0.0,80,0.00,,,0.00,TxWx,2013-02-21 00:34:00,
2013-02-20 18:39:00,19.8,14.0,30.09,NW,320,0.0,0.0,80,0.00,,,0.00,TxWx,2013-02-21 00:39:00,
2013-02-20 18:44:00,19.9,14.0,30.09,NW,321,0.0,0.0,80,0.00,,,0.00,TxWx,2013-02-21 00:44:00,
2013-02-20 18:49:00,20.0,14.0,30.08,NW,326,0.0,0.0,80,0.00,,,0.00,TxWx,2013-02-21 00:49:00,
2013-02-20 18:55:00,20.2,13.0,30.09,NW,324,0.0,0.0,79,0.00,,,0.00,TxWx,2013-02-21 00:55:00,
2013-02-20 19:00:00,20.4,13.0,30.09,NW,321,0.0,0.0,79,0.00,,,0.00,TxWx,2013-02-21 01:00:00,
2013-02-20 19:05:00,20.5,13.0,30.09,NNW,328,0.0,0.0,79,0.00,,,0.00,TxWx,2013-02-21 01:05:00,
2013-02-20 19:10:00,20.5,13.0,30.09,NW,320,0.0,0.0,79,0.00,,,0.00,TxWx,2013-02-21 01:10:00,
2013-02-20 19:15:00,20.5,15.0,30.09,NW,326,0.0,0.0,79,0.00,,,0.00,TxWx,2013-02-21 01:15:00,
2013-02-20 19:20:00,20.6,14.0,30.09,NNW,333,0.0,0.0,79,0.00,,,0.00,TxWx,2013-02-21 01:20:00,
2013-02-20 19:26:00,20.7,14.0,30.08,NNW,334,0.0,0.0,79,0.00,,,0.00,TxWx,2013-02-21 01:26:00,
2013-02-20 19:31:00,20.7,14.0,30.09,NW,322,0.0,0.0,79,0.00,,,0.00,TxWx,2013-02-21 01:31:00,
2013-02-20 19:36:00,20.8,15.0,30.09,NNW,329,0.0,0.0,79,0.00,,,0.00,TxWx,2013-02-21 01:36:00,
2013-02-20 19:41:00,20.9,15.0,30.09,NW,325,0.0,0.0,80,0.00,,,0.00,TxWx,2013-02-21 01:41:00,
2013-02-20 19:46:00,20.9,15.0,30.09,NW,325,0.0,0.0,80,0.00,,,0.00,TxWx,2013-02-21 01:46:00,
2013-02-20 19:51:00,20.9,15.0,30.08,NW,326,0.0,0.0,80,0.00,,,0.00,TxWx,2013-02-21 01:51:00,
2013-02-20 19:56:00,20.9,15.0,30.09,NNW,330,0.0,0.0,81,0.00,,,0.00,TxWx,2013-02-21 01:56:00,
2013-02-20 20:02:00,21.0,15.0,30.09,NW,322,0.0,0.0,81,0.00,,,0.00,TxWx,2013-02-21 02:02:00,
2013-02-20 20:07:00,21.0,15.0,30.09,NNW,327,0.0,0.0,82,0.00,,,0.00,TxWx,2013-02-21 02:07:00,
2013-02-20 20:12:00,21.1,15.0,30.09,NNW,330,0.0,0.0,81,0.00,,,0.00,TxWx,2013-02-21 02:12:00,
2013-02-20 20:17:00,21.2,15.0,30.09,NNW,328,0.0,0.0,80,0.00,,,0.00,TxWx,2013-02-21 02:17:00,
2013-02-20 20:22:00,21.3,15.0,30.08,NNW,330,0.0,0.0,80,0.00,,,0.00,TxWx,2013-02-21 02:22:00,
2013-02-20 20:27:00,21.3,15.0,30.09,NW,323,0.0,0.0,80,0.00,,,0.00,TxWx,2013-02-21 02:27:00,
2013-02-20 20:32:00,21.3,15.0,30.08,NW,326,0.0,0.0,80,0.00,,,0.00,TxWx,2013-02-21 02:32:00,
2013-02-20 20:37:00,21.3,15.0,30.08,NW,325,0.0,0.0,80,0.00,,,0.00,TxWx,2013-02-21 02:37:00,
2013-02-20 20:42:00,21.3,15.0,30.08,NNW,328,0.0,0.0,80,0.00,,,0.00,TxWx,2013-02-21 02:42:00,
2013-02-20 20:48:00,21.3,15.0,30.08,NNW,328,0.0,0.0,81,0.00,,,0.00,TxWx,2013-02-21 02:48:00,
2013-02-20 20:53:00,21.3,15.0,30.08,NW,326,0.0,0.0,81,0.00,,,0.00,TxWx,2013-02-21 02:53:00,
2013-02-20 20:58:00,21.4,15.0,30.08,NNW,330,0.0,0.0,82,0.00,,,0.00,TxWx,2013-02-21 02:58:00,
2013-02-20 21:03:00,21.3,15.0,30.08,NNW,328,0.0,0.0,82,0.00,,,0.00,TxWx,2013-02-21 03:03:00,
2013-02-20 21:08:00,21.4,15.0,30.09,NNW,335,0.0,0.0,82,0.00,,,0.00,TxWx,2013-02-21 03:08:00,
2013-02-20 21:13:00,21.4,15.0,30.09,NNW,335,0.0,0.0,82,0.00,,,0.00,TxWx,2013-02-21 03:13:00,
2013-02-20 21:18:00,21.4,15.0,30.09,NNW,327,0.0,0.0,82,0.00,,,0.00,TxWx,2013-02-21 03:18:00,
2013-02-20 21:24:00,21.4,15.0,30.09,NNW,333,0.0,0.0,82,0.00,,,0.00,TxWx,2013-02-21 03:24:00,
2013-02-20 21:29:00,21.4,15.0,30.09,NNW,327,0.0,0.0,82,0.00,,,0.00,TxWx,2013-02-21 03:29:00,
2013-02-20 21:34:00,21.4,15.0,30.09,NNW,329,0.0,0.0,82,0.00,,,0.00,TxWx,2013-02-21 03:34:00,
2013-02-20 21:40:00,21.5,16.0,30.09,NNW,331,0.0,0.0,82,0.00,,,0.00,TxWx,2013-02-21 03:40:00,
2013-02-20 21:45:00,21.5,16.0,30.09,NNW,332,0.0,0.0,81,0.00,,,0.00,TxWx,2013-02-21 03:45:00,
2013-02-20 21:50:00,21.6,16.0,30.09,NW,326,0.0,0.0,82,0.00,,,0.00,TxWx,2013-02-21 03:50:00,
2013-02-20 21:55:00,21.6,16.0,30.09,NNW,327,0.0,0.0,81,0.00,,,0.00,TxWx,2013-02-21 03:55:00,
2013-02-20 22:02:00,21.7,16.0,30.09,NNW,329,0.0,0.0,81,0.00,,,0.00,TxWx,2013-02-21 04:02:00,
2013-02-20 22:07:00,21.7,16.0,30.09,NW,326,0.0,0.0,81,0.00,,,0.00,TxWx,2013-02-21 04:07:00,
2013-02-20 22:13:00,21.7,16.0,30.09,NW,324,0.0,0.0,81,0.00,,,0.00,TxWx,2013-02-21 04:13:00,
2013-02-20 22:18:00,21.7,16.0,30.09,NNW,339,0.0,0.0,82,0.00,,,0.00,TxWx,2013-02-21 04:18:00,
2013-02-20 22:23:00,21.7,16.0,30.09,NW,326,0.0,0.0,82,0.00,,,0.00,TxWx,2013-02-21 04:23:00,
2013-02-20 22:28:00,21.7,16.0,30.08,NNW,334,0.0,0.0,82,0.00,,,0.00,TxWx,2013-02-21 04:28:00,
2013-02-20 22:33:00,21.7,16.0,30.08,NNW,332,0.0,0.0,82,0.00,,,0.00,TxWx,2013-02-21 04:33:00,
2013-02-20 22:38:00,21.6,16.0,30.08,NNW,330,0.0,0.0,82,0.00,,,0.00,TxWx,2013-02-21 04:38:00,
2013-02-20 22:43:00,21.6,16.0,30.08,NNW,330,0.0,0.0,83,0.00,,,0.00,TxWx,2013-02-21 04:43:00,
2013-02-20 22:48:00,21.6,16.0,30.08,NNW,333,0.0,0.0,83,0.00,,,0.00,TxWx,2013-02-21 04:48:00,
2013-02-20 22:53:00,21.6,16.0,30.08,NNW,327,0.0,0.0,83,0.00,,,0.00,TxWx,2013-02-21 04:53:00,
2013-02-20 22:58:00,21.6,17.0,30.08,NNW,327,0.0,0.0,83,0.00,,,0.00,TxWx,2013-02-21 04:58:00,
2013-02-20 23:00:00,21.6,16.0,30.08,NW,322,0.0,0.0,83,0.00,,,0.00,TxWx,2013-02-21 05:00:00,
2013-02-20 23:01:00,21.7,16.0,30.08,NNW,328,0.0,0.0,83,0.00,,,0.00,TxWx,2013-02-21 05:01:00,
2013-02-20 23:07:00,21.8,17.0,30.08,NNW,331,0.0,0.0,83,0.00,,,0.00,TxWx,2013-02-21 05:07:00,
2013-02-20 23:12:00,21.8,16.0,30.08,NW,317,0.0,0.0,83,0.00,,,0.00,TxWx,2013-02-21 05:12:00,
2013-02-20 23:17:00,21.9,17.0,30.08,NW,317,0.0,0.0,83,0.00,,,0.00,TxWx,2013-02-21 05:17:00,
2013-02-20 23:22:00,21.9,17.0,30.09,NW,324,0.0,0.0,83,0.00,,,0.00,TxWx,2013-02-21 05:22:00,
2013-02-20 23:27:00,22.0,17.0,30.09,North,0,0.0,0.0,83,0.00,,,0.00,TxWx,2013-02-21 05:27:00,
2013-02-20 23:32:00,22.0,17.0,30.09,NW,326,0.0,0.0,83,0.00,,,0.00,TxWx,2013-02-21 05:32:00,
2013-02-20 23:38:00,22.0,17.0,30.09,NNW,328,0.0,0.0,83,0.00,,,0.00,TxWx,2013-02-21 05:38:00,
2013-02-20 23:43:00,22.0,17.0,30.09,NW,317,0.0,0.0,83,0.00,,,0.00,TxWx,2013-02-21 05:43:00,
2013-02-20 23:48:00,22.1,17.0,30.09,SE,131,0.0,0.0,83,0.00,,,0.00,TxWx,2013-02-21 05:48:00,
2013-02-20 23:53:00,22.2,17.0,30.09,NW,319,0.0,0.0,83,0.00,,,0.00,TxWx,2013-02-21 05:53:00,
2013-02-20 23:54:00,22.2,17.0,30.09,NW,318,0.0,0.0,83,0.00,,,0.00,TxWx,2013-02-21 05:54:00,